Probability
1 1 0 0 0 1 0 0 0 0 0 0 0 0 0 1 1 1 1 2 5 10 13 12 8 5 4 7 9 8 5 6 8 9 10 10 8 8 7 5 4 3 3
1 0 0 0 1 1 1 0 0 0 0 0 0 0 0 0 0 0 0 1 4 7 10 11 10 7 6 7 9 8 6 6 8 9 11 11 10 9 8 6 4 3 3
0 0 0 0 1 2 2 1 0 0 0 0 0 0 0 0 0 0 0 1 3 5 7 10 10 9 8 8 8 8 8 8 8 9 10 11 11 9 8 6 5 4 3
0 0 0 0 1 2 2 1 0 0 0 0 0 0 0 0 0 0 0 1 2 3 5 7 8 8 7 7 7 7 8 8 8 7 7 7 8 7 6 6 5 3 3
0 0 0 0 0 1 1 1 0 0 0 0 0 0 0 0 0 0 0 0 1 1 2 3 6 7 7 7 8 8 8 7 6 5 4 3 3 4 4 5 4 3 2
0 0 0 0 0 0 0 0 0 0 1 0 0 0 0 0 0 0 0 0 0 0 0 1 2 5 7 8 8 8 8 6 3 2 2 2 1 1 3 3 3 2 1
0 0 0 0 0 0 0 0 0 0 0 0 0 0 0 0 0 0 0 0 0 0 0 0 0 2 4 5 5 6 6 5 2 1 2 2 1 1 2 3 2 1 0
0 0 0 0 0 0 0 0 0 0 0 0 0 0 0 0 0 0 0 0 0 0 0 0 0 0 1 1 2 3 5 5 4 3 4 3 1 1 3 3 3 1 0
0 0 0 0 0 0 0 0 0 0 0 0 0 0 0 0 0 0 0 0 0 0 0 0 0 0 0 0 1 3 5 5 6 7 6 5 3 3 3 3 3 2 1
0 0 0 0 0 0 0 0 0 0 0 0 0 0 0 0 0 0 0 0 0 0 0 0 0 0 0 0 0 1 3 4 6 7 7 6 6 6 5 4 3 3 3
0 0 0 0 0 1 1 1 1 1 1 0 0 0 0 0 0 0 0 0 0 0 0 0 0 0 0 0 0 0 1 3 5 6 6 6 7 8 7 6 5 4 4
0 0 0 0 1 2 2 2 2 2 2 1 1 1 1 1 1 1 0 0 0 0 0 0 0 0 0 0 0 0 1 2 3 3 4 4 6 7 7 8 7 6 6
0 0 0 0 2 3 3 3 3 3 3 3 2 2 2 2 2 1 0 0 0 0 0 0 0 0 0 0 0 0 0 1 1 1 2 3 4 5 7 8 9 9 9
0 0 0 0 2 3 3 3 3 3 3 3 3 3 3 3 3 2 1 0 0 0 0 0 0 0 0 0 0 0 0 0 0 0 1 1 2 3 5 6 7 8 7
0 0 0 1 2 3 3 4 4 3 3 3 3 3 3 3 3 3 2 1 1 0 0 0 0 0 0 0 0 0 0 0 0 0 0 0 1 1 3 3 4 4 4
0 0 0 1 3 4 5 5 4 4 3 3 3 3 3 3 3 3 3 2 1 0 0 0 0 0 0 0 0 0 0 0 0 0 0 0 0 0 1 1 1 1 2
1 1 1 1 3 5 6 5 4 3 3 3 3 3 3 3 3 3 3 2 1 0 0 0 0 0 0 0 0 0 0 0 0 0 0 0 0 0 0 0 0 0 1
5 4 4 3 3 5 6 4 3 3 3 3 3 3 3 2 1 1 2 1 0 0 0 0 0 0 0 0 0 0 0 0 0 0 0 0 0 0 0 0 0 0 0
6 8 9 7 5 5 4 3 3 3 3 3 3 3 3 1 0 0 0 0 0 0 0 0 0 0 0 0 0 0 0 0 0 0 0 0 0 0 0 0 0 0 0
7 9 10 9 7 6 4 3 3 3 3 2 2 2 2 1 0 0 0 0 0 0 0 0 0 0 0 0 0 0 0 0 0 0 0 0 0 0 0 0 0 0 0
8 8 9 8 7 6 5 3 2 2 1 1 1 1 1 0 0 0 0 0 0 0 0 0 0 0 0 0 0 0 0 0 0 0 0 0 0 0 0 0 0 0 0
9 7 6 6 6 6 4 2 0 0 0 0 0 0 0 0 0 0 0 0 0 0 0 0 0 0 0 0 0 0 0 0 0 0 0 0 0 0 0 0 0 0 0
10 7 4 4 4 4 2 0 0 0 0 0 0 0 0 0 0 0 0 0 0 0 0 0 0 0 0 0 0 0 0 0 0 0 0 0 0 0 0 0 0 0 0
9 7 4 3 2 2 1 0 0 0 0 0 0 0 0 0 0 0 0 0 0 0 0 0 0 0 0 0 0 0 0 0 0 0 0 0 0 0 0 0 0 0 0
7 6 5 3 2 2 1 0 0 0 0 0 0 0 0 0 0 0 0 0 0 0 0 0 0 0 0 0 0 0 0 0 0 0 0 0 0 0 0 0 0 0 0
6 5 4 4 3 2 2 1 0 0 0 0 0 0 0 0 0 0 0 0 0 0 0 0 0 0 0 0 0 0 0 0 0 0 0 0 0 0 0 0 0 0 0
Wind_Speed
0 0 0 0 1 1 1 1 1 1 2 2 3 3 3 3 3 3 3 7 8 9 10 11 11 11 11 11 11 11 11 11 10 10 10 10 11 12 12 11 11 11 11
0 0 0 0 0 1 1 1 1 1 1 1 2 3 3 3 3 3 3 4 7 8 9 10 10 10 11 11 11 11 11 11 10 10 10 10 10 11 11 11 11 11 10
0 1 0 0 0 0 0 1 0 0 0 0 1 2 2 3 3 3 3 2 3 6 8 8 9 10 10 11 11 10 10 9 9 9 10 10 9 10 10 10 11 11 10
1 1 1 0 0 0 1 1 1 0 1 1 1 1 1 1 2 3 2 2 2 3 4 6 7 8 9 10 11 11 10 9 9 8 8 9 10 10 10 10 10 10 10
1 1 1 0 0 1 1 1 1 1 0 1 1 1 1 1 2 2 2 3 3 3 2 5 7 7 7 8 9 10 10 9 9 9 9 9 9 9 9 10 11 11 11
1 1 1 1 1 1 1 1 1 0 0 1 1 1 1 1 1 2 2 2 2 3 3 3 3 4 6 7 7 7 8 8 9 9 9 9 9 9 9 9 9 11 11
1 1 1 1 1 1 1 1 1 0 0 0 1 1 2 1 1 1 1 1 2 3 3 3 2 2 3 6 7 7 7 8 8 9 9 8 8 9 9 9 9 9 10
1 1 2 1 1 1 1 1 1 1 0 1 1 1 2 3 2 1 1 2 2 2 2 4 3 3 3 2 4 8 8 8 8 8 8 8 8 8 8 9 10 9 9
1 1 1 1 1 1 1 1 1 2 0 1 1 2 2 2 2 2 1 1 1 2 2 2 4 4 4 3 3 6 8 8 9 9 9 9 8 8 9 9 9 9 9
1 2 1 2 1 1 1 1 1 1 1 0 1 1 2 2 1 2 2 1 1 2 3 3 3 3 3 3 4 6 7 8 9 9 9 9 9 9 9 9 10 10 10
1 1 1 1 1 1 1 0 1 1 1 1 1 1 1 0 1 1 2 3 2 2 2 3 2 2 3 4 3 5 7 7 7 8 9 9 9 9 9 10 10 10 11
1 1 1 1 1 0 0 1 1 1 1 1 0 0 1 1 1 1 2 2 2 2 2 2 2 2 2 3 5 7 7 7 6 8 9 9 9 9 9 10 11 10 10
1 1 1 0 0 0 0 0 1 0 1 1 1 0 1 1 1 1 1 1 1 2 1 1 1 2 2 2 3 7 7 7 7 7 9 9 9 9 9 9 9 9 9
1 0 0 0 0 0 0 1 0 0 0 0 0 0 0 1 0 1 2 1 1 2 1 2 2 2 2 2 4 6 5 7 7 6 8 9 9 9 9 9 9 8 8
0 0 1 0 1 0 1 1 1 1 1 0 0 0 0 1 1 0 1 2 2 1 2 2 2 2 2 2 4 3 4 6 6 5 6 8 9 9 9 9 9 9 8
0 1 0 0 1 1 1 1 0 1 1 1 1 1 1 1 1 1 0 0 1 2 2 2 2 3 3 2 3 3 3 5 5 4 5 7 9 10 9 9 9 8 8
0 0 0 0 0 0 1 1 1 1 1 1 1 1 1 1 1 1 0 0 1 1 2 3 2 2 2 2 1 1 2 2 2 4 4 5 8 9 9 9 9 9 9
0 0 1 1 1 1 1 1 1 1 1 1 2 1 2 1 1 1 1 1 1 1 2 2 2 2 2 2 1 1 2 2 2 3 4 4 5 7 8 8 9 9 8
0 1 1 1 2 2 1 1 0 1 1 1 1 1 1 1 2 2 1 1 1 1 1 1 2 2 1 1 1 1 1 1 2 3 4 4 4 5 6 7 8 7 7
0 1 1 1 1 1 1 1 1 1 1 1 1 1 1 1 1 2 1 1 1 1 0 0 1 2 2 2 1 1 2 1 2 2 2 2 3 4 5 5 6 6 6
1 1 1 1 0 1 1 1 1 1 1 1 2 1 1 2 2 1 1 1 0 0 0 0 1 2 2 2 1 1 1 2 2 2 1 1 1 1 2 4 4 6 6
1 1 1 1 1 1 3 3 2 1 1 1 1 2 2 2 3 4 4 2 1 1 1 0 1 1 2 2 1 1 1 1 2 2 0 2 1 1 2 2 4 5 6
1 2 1 1 1 2 3 3 3 1 1 1 1 1 2 3 3 2 3 4 3 2 1 2 2 3 3 3 2 1 1 1 2 2 0 2 1 1 2 2 4 5 6
1 1 1 1 1 2 4 3 3 1 1 1 1 1 1 2 3 2 1 2 3 3 2 1 2 3 3 2 2 2 2 1 1 2 1 1 1 1 2 1 2 4 5
1 1 1 1 1 2 3 3 2 1 1 2 2 1 1 1 4 3 1 2 3 4 4 3 2 2 3 3 1 1 1 1 1 2 1 1 1 1 1 2 2 2 3
2 1 1 0 1 1 2 3 2 1 1 2 2 2 2 2 3 2 1 0 2 4 3 4 4 4 3 3 2 1 2 1 1 2 1 1 1 0 1 2 2 1 1
Wind_Direction
153 217 238 218 220 194 192 210 221 196 194 199 201 197 208 213 218 216 226 218 212 209 206 205 206 208 209 207 206 208 212 213 212 210 206 202 200 200 200 201 202 203 200
128 137 297 322 266 216 203 180 176 187 195 202 211 207 212 213 214 217 221 222 210 206 204 206 210 211 214 212 207 209 212 211 210 208 204 203 202 200 202 203 204 205 203
126 148 84 46 290 303 130 113 104 82 155 246 239 234 221 216 211 209 212 217 220 216 210 208 211 213 217 215 208 208 207 208 207 207 206 204 203 202 202 203 203 203 203
64 108 89 10 291 68 93 111 98 75 334 303 265 253 244 235 228 213 209 207 209 217 217 211 213 215 217 217 212 209 206 205 202 203 205 206 207 207 206 204 203 203 202
67 116 118 86 72 71 77 113 103 147 251 301 271 252 248 241 242 225 211 208 209 208 209 214 214 216 222 221 213 214 212 210 207 209 210 212 212 209 208 208 207 206 205
86 110 126 104 94 89 70 71 135 149 199 250 258 266 267 240 229 224 222 209 213 214 211 214 220 222 220 209 207 213 214 210 211 214 215 217 217 214 211 209 208 206 206
65 100 89 89 96 105 118 106 126 75 315 53 65 353 330 290 249 230 208 193 215 220 207 206 208 210 221 212 206 210 211 207 209 212 215 215 216 214 212 210 208 205 206
62 107 110 103 103 115 86 82 104 90 282 105 122 90 345 331 315 264 218 196 206 203 204 205 203 209 217 216 208 210 208 207 209 211 212 213 214 213 211 211 208 207 206
57 78 112 127 117 127 147 161 131 132 191 291 137 133 155 243 300 312 260 233 213 205 219 208 206 210 208 212 215 212 210 209 213 215 213 213 211 212 212 209 208 209 209
58 76 81 103 116 112 130 167 132 143 140 218 297 209 195 178 172 310 323 302 266 229 228 221 215 215 213 212 210 209 214 214 214 216 214 212 212 213 211 209 211 213 213
26 66 83 86 91 105 138 159 106 120 147 168 201 239 248 229 162 169 278 308 312 273 245 231 214 216 219 213 213 213 214 215 215 215 215 215 215 217 218 217 216 216 215
360 16 75 84 102 111 146 206 148 144 164 158 170 159 164 178 221 186 223 270 289 290 281 251 219 221 221 215 218 209 212 216 220 220 219 219 220 221 224 223 220 219 219
347 321 19 51 58 232 219 136 123 132 165 148 176 211 203 213 202 177 184 246 279 296 308 305 263 230 223 221 220 208 211 217 220 225 225 224 225 226 225 222 220 219 219
260 303 46 74 313 11 43 66 73 200 63 125 123 170 202 271 215 172 178 184 278 305 312 283 300 260 249 230 224 213 217 220 223 228 227 226 225 224 223 217 217 217 216
207 78 68 29 337 8 48 79 47 355 10 347 295 305 312 290 325 258 180 167 173 250 284 270 281 285 273 241 230 217 218 224 224 228 227 223 221 220 219 218 218 216 214
41 84 56 343 334 14 47 65 23 343 8 319 301 350 333 299 308 301 217 226 184 192 247 268 260 274 275 259 234 223 224 223 220 222 231 227 219 215 216 217 220 218 215
137 112 173 100 355 35 66 75 338 358 342 308 309 315 296 292 302 295 276 255 245 192 243 283 281 291 285 291 275 243 231 222 223 220 232 232 221 215 217 219 222 219 216
178 154 72 45 19 27 40 63 314 328 313 300 305 322 311 320 314 298 287 270 252 223 208 270 299 310 299 275 260 248 247 230 227 229 230 238 233 222 218 220 222 219 216
65 53 75 57 32 26 20 9 312 306 315 309 311 321 320 351 340 329 328 317 292 307 197 219 287 307 317 333 343 298 290 294 256 246 237 237 246 242 232 227 221 217 214
107 41 63 82 65 56 42 8 14 1 355 349 344 329 325 323 309 302 313 303 315 348 338 255 305 324 329 335 6 329 322 317 293 291 273 248 254 252 247 238 226 217 214
100 102 85 75 66 72 44 29 334 0 11 353 350 341 349 6 7 1 357 310 328 17 2 2 320 336 328 341 316 292 293 309 301 287 292 284 281 274 262 250 241 229 219
99 87 92 98 40 33 25 24 30 347 339 337 334 335 335 350 3 9 12 17 60 156 205 205 269 282 275 272 277 284 276 312 300 298 212 287 263 262 263 243 238 232 223
113 97 74 54 31 11 23 27 35 42 333 307 286 307 331 348 3 353 350 2 353 328 244 204 238 263 251 244 236 283 271 244 255 264 214 283 283 260 259 258 231 225 226
141 127 88 63 46 8 16 24 30 46 18 339 311 270 292 325 341 350 350 355 339 328 304 273 228 254 262 252 219 215 222 248 295 295 182 238 279 268 281 288 258 231 229
139 141 132 123 90 343 2 16 34 28 14 346 342 343 334 303 328 360 33 355 339 330 340 349 328 317 312 301 264 94 65 76 296 285 277 184 253 287 304 295 291 271 241
154 132 95 112 159 281 337 12 28 48 13 342 335 326 334 337 339 358 18 349 321 310 329 340 344 343 338 325 306 204 193 191 223 261 257 179 235 82 320 301 300 307 287